Theta_e
288 289 288 288 289 290 291 292 293 294 294 294 295 295 294 293 291 292 294 295 296 296 296 297 299 302 303 303 303 302 304 305 306 307 308 308 310 312 314 317 321 322 323 323 323 318 314 315 314 313 313 313
289 289 288 288 287 287 288 289 290 291 292 291 292 293 293 292 290 289 290 292 293 294 294 294 296 299 301 301 301 300 301 303 303 304 305 306 308 310 312 315 318 320 320 320 322 320 315 313 312 313 314 313
289 289 289 289 288 287 286 286 287 288 289 289 290 291 291 290 290 289 289 288 290 291 292 292 293 296 298 299 299 298 298 300 301 301 302 304 305 307 309 312 315 317 317 318 320 319 317 313 311 314 314 313
287 288 288 288 288 288 287 286 285 286 287 288 288 289 289 289 289 289 289 287 287 288 289 289 290 293 296 296 297 297 296 298 299 299 299 301 303 304 305 307 310 313 315 315 316 318 318 313 310 313 314 314
285 286 286 287 287 287 287 286 285 285 286 287 287 288 288 288 289 289 288 287 287 287 288 288 288 290 293 294 295 295 294 295 297 297 297 298 300 302 302 303 306 309 311 312 313 316 318 315 311 312 313 314
284 284 284 285 285 285 285 285 285 284 285 286 286 286 287 287 287 288 288 287 287 287 287 287 287 287 290 291 292 293 292 292 294 294 295 296 298 299 300 301 303 305 307 308 310 312 315 316 315 314 312 313
283 283 283 283 283 284 284 284 284 284 284 284 285 285 285 286 286 287 287 287 287 287 287 287 287 287 287 288 289 290 290 290 292 292 292 293 295 297 298 299 300 301 302 303 305 307 310 313 315 316 313 311
283 283 283 283 283 283 283 283 283 283 283 283 284 284 284 284 285 286 286 286 287 287 287 287 287 286 286 287 288 289 289 289 290 290 290 291 293 295 296 297 298 298 299 299 300 301 304 308 311 313 314 311
283 283 283 283 282 282 282 282 282 282 282 282 283 283 283 283 283 284 285 285 286 286 286 287 286 286 286 286 287 288 288 288 289 289 289 290 290 292 293 294 295 297 298 298 298 298 299 303 307 309 312 311
283 283 283 283 282 282 282 282 282 282 282 282 282 282 282 282 282 282 283 284 284 285 285 285 285 285 285 286 287 287 287 287 288 288 289 289 289 290 292 292 293 294 296 297 298 297 297 299 301 304 307 309
283 283 283 282 282 282 282 282 282 281 281 281 281 281 281 281 281 281 281 282 282 283 283 283 283 283 284 286 286 286 286 286 287 287 288 289 288 289 290 291 292 292 293 295 296 297 297 296 297 299 301 305
283 283 283 282 282 282 282 282 282 281 281 281 281 281 281 281 281 280 280 280 281 281 281 281 281 281 283 285 285 285 286 286 286 286 287 288 288 288 289 290 291 291 291 293 294 295 296 296 296 296 297 299
283 283 283 283 282 282 282 282 282 282 281 281 281 281 281 281 281 280 280 280 280 280 280 280 280 280 281 282 283 284 285 285 285 286 286 286 287 288 288 289 290 290 290 291 292 294 295 296 296 296 295 296
283 282 282 282 282 282 282 282 282 282 281 281 281 281 281 281 281 280 280 280 280 280 280 280 280 280 280 281 281 282 283 284 284 285 285 286 286 287 287 288 289 289 290 291 291 292 294 296 297 296 295 295
281 281 281 281 281 281 282 282 282 282 281 281 281 281 281 281 281 280 280 280 280 280 280 279 280 280 280 280 280 281 281 282 283 284 285 285 285 286 286 287 288 288 289 290 291 291 293 294 296 296 296 295
280 280 280 280 280 281 281 281 281 281 281 281 281 281 281 281 281 280 280 280 280 279 279 279 279 280 280 280 280 280 280 281 282 283 284 284 285 285 286 286 287 288 288 289 290 290 291 293 294 296 296 296
279 279 279 279 280 280 280 281 281 281 281 281 281 281 281 281 280 280 280 279 279 279 279 279 279 279 279 279 279 279 280 280 280 281 282 283 283 284 284 285 286 286 287 288 288 289 290 291 292 294 295 296
279 279 279 279 279 280 280 280 280 280 280 281 281 281 281 281 280 280 279 279 279 279 279 279 279 279 279 279 279 279 279 279 280 280 280 281 281 282 283 283 284 285 285 286 287 288 289 289 290 292 293 295
278 278 279 279 279 279 279 280 280 280 280 280 280 281 280 280 280 280 279 279 279 279 279 279 279 279 279 279 279 279 279 279 279 279 279 279 279 279 280 281 282 283 283 285 286 287 288 288 289 290 291 293
278 278 278 278 278 278 279 279 279 279 279 279 279 280 280 280 279 279 279 279 279 279 279 279 279 278 278 278 278 278 278 278 278 278 278 278 278 277 278 279 280 281 282 283 284 285 286 287 288 289 290 291
277 277 277 277 278 278 278 278 278 278 278 278 278 279 279 279 278 278 278 278 278 278 278 278 278 278 278 277 277 277 277 277 277 277 277 277 277 277 277 277 278 279 280 281 282 284 285 286 287 288 289 290
277 277 277 277 277 277 277 277 277 277 277 277 277 278 277 277 277 277 277 277 278 278 278 278 277 277 277 277 277 277 276 277 277 277 276 276 277 277 276 277 277 278 279 280 281 282 284 285 286 287 288 289
276 276 276 276 276 276 276 276 276 276 276 276 276 276 276 277 276 276 276 276 277 277 277 277 277 277 276 276 276 276 276 276 276 276 276 276 276 276 277 277 277 278 279 279 280 281 283 285 286 287 288 289
275 275 274 274 274 275 275 275 275 275 275 275 275 275 276 276 275 275 275 275 275 276 276 276 276 276 276 276 276 276 276 276 276 276 276 276 276 276 277 277 278 278 279 279 280 281 283 284 285 286 287 288
274 273 273 273 273 273 273 273 274 274 274 274 274 275 275 275 274 275 275 274 275 275 275 275 275 275 275 275 275 275 275 275 276 276 276 276 276 277 277 277 278 278 278 279 280 281 282 284 285 286 287 288
273 273 272 272 272 272 272 272 272 273 273 273 274 274 274 274 274 274 274 274 274 274 274 274 274 274 274 274 274 274 274 275 275 275 276 276 276 277 277 277 277 278 278 279 280 281 282 283 285 286 287 288
272 272 272 272 271 271 271 271 272 272 273 273 273 273 273 273 273 273 273 273 273 273 273 274 273 273 274 274 274 274 274 274 274 274 275 275 275 276 276 277 277 277 278 278 279 280 282 284 286 287 288 288
271 271 271 271 271 271 271 271 272 272 272 272 272 272 272 272 272 272 272 272 272 272 272 273 273 273 273 273 273 273 273 273 273 274 274 274 275 275 276 276 276 277 277 277 278 279 281 284 285 286 287 287
271 271 271 271 271 271 270 271 272 272 271 271 271 271 271 271 271 271 271 272 272 272 272 272 272 272 272 272 272 272 272 273 273 273 274 274 274 275 275 275 276 276 276 276 277 278 280 281 283 284 285 285
271 271 271 270 270 270 270 271 271 271 271 270 270 270 270 270 270 270 271 271 271 271 271 271 271 271 272 272 272 272 272 272 273 273 273 274 275 275 275 275 275 275 275 276 276 277 278 279 281 283 284 284
271 271 270 270 270 270 270 270 271 271 270 270 270 270 270 270 270 270 271 271 271 271 271 271 271 271 271 271 271 271 272 272 273 273 274 274 274 274 274 274 274 275 275 276 276 276 278 279 280 281 283 284
Wind_Speed
32 32 33 33 32 31 30 30 29 28 29 28 26 27 28 28 27 27 26 27 28 28 27 27 27 25 24 25 25 21 21 23 21 20 19 18 14 12 10 5 2 4 7 14 19 20 18 16 14 13 12 11
33 33 34 34 33 32 30 30 29 27 28 28 27 27 27 28 27 27 26 26 27 27 27 27 26 26 25 25 25 23 21 22 22 20 18 16 14 11 8 4 2 3 1 6 15 20 20 17 16 15 13 12
33 33 33 34 34 33 31 29 28 25 25 26 26 27 28 28 29 28 27 27 26 26 26 26 26 26 26 25 25 25 22 22 22 21 18 15 14 12 10 6 1 2 1 1 6 13 18 17 16 16 15 13
30 30 31 32 32 32 32 30 27 25 23 24 25 25 27 28 28 29 28 27 26 25 24 24 25 24 25 24 25 25 24 22 22 21 19 16 14 14 12 10 5 1 1 1 1 6 16 19 16 17 16 14
27 28 29 30 30 31 31 30 28 25 23 22 24 24 26 27 27 27 27 27 25 24 23 23 23 23 23 23 24 25 23 23 23 22 20 18 16 14 14 13 10 5 3 3 4 1 11 18 15 15 16 15
27 27 29 30 30 30 30 31 29 27 23 21 23 23 24 26 26 26 25 25 24 23 22 22 22 21 21 21 22 23 22 22 23 24 22 19 18 16 15 14 13 11 8 6 7 7 5 14 15 14 14 14
26 27 29 30 31 31 31 32 30 28 24 21 23 23 24 24 24 24 23 23 22 22 22 23 22 21 21 20 21 22 22 22 22 24 24 20 18 16 15 15 15 15 14 12 11 11 8 5 12 14 13 13
24 26 27 29 30 31 32 32 31 30 26 22 23 23 24 24 22 22 21 21 21 21 22 23 23 22 22 20 21 21 21 22 21 23 24 22 20 17 17 17 17 17 17 16 16 15 13 7 3 9 11 11
23 24 25 27 27 28 30 30 30 30 28 25 24 24 25 24 23 21 20 20 21 22 22 23 24 24 23 21 22 23 23 23 23 23 23 23 23 20 19 19 19 18 18 18 18 18 16 12 7 3 6 9
22 23 24 25 25 27 28 27 28 29 28 27 25 24 24 25 25 24 22 21 21 22 22 22 23 23 23 22 22 24 24 24 24 24 24 24 24 23 21 20 20 19 18 17 18 18 19 16 13 10 6 4
21 22 23 23 23 25 26 26 26 26 26 26 25 24 24 24 25 25 25 24 22 22 23 23 23 23 22 21 22 23 24 25 25 26 25 24 23 23 21 20 21 21 19 17 17 17 18 19 16 14 12 7
21 22 22 22 22 23 24 25 25 24 25 25 23 23 23 23 24 24 26 25 25 24 24 24 23 22 21 20 22 23 23 25 25 26 26 26 24 23 22 21 20 21 21 19 17 16 16 18 18 17 15 12
23 23 23 22 22 23 24 25 24 24 24 24 21 21 21 22 23 23 24 25 26 26 26 26 24 22 22 21 22 23 23 24 25 25 26 26 25 24 24 22 21 21 21 21 20 17 15 16 17 19 19 16
21 22 23 23 23 24 25 25 24 24 24 23 20 19 19 20 22 22 23 24 26 27 27 27 24 22 22 22 23 24 24 24 24 24 25 25 25 25 25 24 22 21 20 20 21 20 17 15 16 18 20 20
16 17 18 19 21 21 23 24 24 24 23 22 19 18 18 18 19 20 21 23 24 25 27 27 24 22 22 22 24 24 24 24 23 23 23 23 23 24 25 24 23 21 21 19 20 22 21 17 16 17 19 21
16 17 18 18 19 18 18 21 24 25 24 21 19 17 17 18 17 17 18 20 21 23 26 25 23 22 22 22 23 24 24 24 23 23 22 22 22 22 23 24 23 22 22 20 19 20 22 20 19 18 18 20
19 20 19 19 19 17 16 17 21 24 25 22 19 17 18 17 16 15 15 16 17 20 23 23 23 23 22 22 23 24 25 25 24 24 24 23 23 23 24 24 24 24 23 22 20 19 20 21 21 20 19 19
19 18 18 18 19 18 17 17 18 20 22 23 21 18 18 17 15 13 13 14 16 18 20 21 21 22 22 22 23 24 25 26 26 26 27 27 27 27 26 27 26 26 26 24 23 21 19 20 20 20 20 19
18 18 18 18 18 18 18 17 18 19 17 18 20 19 16 15 14 11 11 14 16 17 18 19 19 20 21 22 23 24 25 26 26 28 28 29 30 30 29 29 28 27 27 27 25 24 22 21 20 20 20 19
17 18 18 19 18 18 18 17 16 18 18 16 14 14 13 13 12 11 11 13 13 13 14 15 16 17 18 20 22 23 24 26 27 28 29 29 30 32 31 31 30 29 29 29 28 26 25 24 22 20 20 19
18 18 18 19 19 19 18 17 16 16 18 18 15 14 14 14 13 11 11 10 10 10 10 11 12 13 15 18 21 23 24 25 26 28 29 30 30 31 31 31 31 31 31 30 30 29 27 26 25 23 21 20
18 18 19 20 20 21 20 19 18 17 18 19 18 16 17 16 15 13 11 11 11 10 9 9 12 14 16 19 21 23 25 25 26 27 27 29 30 30 30 29 29 30 31 31 31 31 30 28 27 26 23 21
17 19 19 20 21 22 23 22 22 21 20 20 20 20 19 18 16 16 16 15 14 13 12 13 15 17 18 20 21 23 25 25 25 26 26 27 28 29 28 26 26 27 29 31 31 30 30 29 28 26 24 23
17 19 19 19 20 20 23 24 24 23 22 21 21 21 19 16 16 17 17 17 17 16 16 16 17 18 19 20 20 21 22 23 23 23 24 24 26 28 27 25 25 25 27 30 30 30 29 27 26 27 26 24
17 19 18 19 18 18 20 22 23 24 23 21 19 17 14 13 14 16 17 18 18 18 18 18 19 19 20 20 20 20 20 20 20 20 21 22 22 23 24 24 22 23 26 25 23 26 29 31 29 25 24 23
16 17 17 18 17 18 19 20 21 21 20 17 14 11 12 14 16 17 18 19 20 20 20 20 20 21 21 21 21 20 20 19 19 19 19 21 22 21 21 20 19 21 22 18 18 19 20 25 26 22 18 15
17 18 17 17 17 17 18 19 19 15 14 14 14 13 16 18 19 20 21 21 22 21 21 21 21 21 20 21 21 21 21 20 19 19 19 20 21 22 21 19 18 19 18 16 19 16 8 8 13 14 11 10
19 19 16 16 17 17 18 18 15 13 14 16 17 18 20 20 21 22 22 23 22 21 20 19 19 19 20 20 20 20 21 20 20 19 19 20 21 21 19 19 19 19 18 17 16 10 5 5 6 6 6 12
18 16 15 16 17 18 18 17 13 13 16 18 19 20 21 21 22 22 22 21 20 19 19 19 19 19 19 20 19 19 20 20 20 19 19 20 20 20 18 19 20 19 19 18 15 10 7 6 3 3 7 14
14 13 14 16 17 17 17 15 13 13 16 18 19 19 19 20 20 20 19 18 18 19 19 19 18 18 17 18 18 17 18 18 19 20 20 19 18 19 19 19 19 19 20 20 19 16 12 11 10 9 12 10
12 12 15 15 16 16 15 15 14 15 17 18 18 18 19 20 19 18 17 17 18 18 18 16 16 16 17 18 18 17 17 17 17 18 17 16 16 17 18 18 18 18 20 19 19 19 17 19 19 18 15 9
Wind_Direction
7 8 8 9 10 9 10 10 10 10 10 11 12 14 15 14 14 15 14 14 15 14 15 16 15 14 11 11 10 8 12 14 15 18 19 24 25 25 30 42 142 186 231 231 212 200 195 193 194 196 200 199
359 360 0 2 5 7 9 10 10 9 10 10 10 10 11 10 10 12 13 13 14 13 13 13 13 13 11 11 10 6 10 12 12 12 12 17 21 26 35 38 135 140 104 232 219 207 197 192 192 196 200 199
352 353 353 354 357 0 4 8 9 8 11 12 11 9 7 6 5 6 10 11 11 12 12 11 11 10 10 11 10 5 5 10 9 9 9 7 7 14 27 33 78 165 89 174 220 211 204 204 196 195 200 197
349 349 349 349 350 353 356 1 5 5 7 11 12 9 6 5 3 2 4 6 7 7 9 11 11 9 8 8 8 6 5 9 6 4 6 3 1 2 6 13 23 95 80 23 295 208 207 213 202 195 200 198
348 348 347 347 347 348 350 353 359 1 2 6 8 6 4 4 3 360 359 2 3 1 3 7 11 10 8 7 6 6 7 9 5 2 2 360 1 358 353 356 6 34 53 33 9 40 197 207 210 210 207 203
348 349 348 349 348 348 349 348 352 356 358 1 3 3 2 2 1 358 356 358 360 358 359 2 7 9 8 10 9 7 9 12 7 3 1 358 359 357 350 348 357 10 22 31 23 31 150 195 217 230 225 217
346 349 349 351 350 349 349 347 348 351 353 354 359 2 2 1 359 356 355 355 355 355 357 359 3 7 9 13 13 10 10 13 11 5 1 359 358 355 350 350 356 359 2 10 16 26 49 159 212 232 239 234
343 347 348 349 350 349 349 347 346 349 349 348 350 356 0 0 358 355 353 352 352 354 356 356 358 2 7 12 12 10 9 9 9 5 1 1 360 357 354 353 355 357 355 356 2 13 26 51 187 234 239 241
337 341 343 345 347 346 347 347 345 346 347 346 344 347 353 355 358 357 354 352 351 354 355 355 357 359 2 6 8 7 5 4 2 1 0 1 1 1 359 355 354 356 355 350 349 356 9 29 41 337 256 239
333 336 338 340 343 342 343 343 341 343 345 344 341 341 344 348 353 356 356 355 353 354 355 355 356 357 357 360 3 2 360 358 357 357 356 358 360 360 360 359 356 353 354 351 344 342 350 5 23 21 356 265
327 329 330 333 336 337 338 338 337 340 342 341 339 339 341 343 347 352 354 355 356 355 355 354 354 355 356 357 358 358 356 353 353 354 352 352 355 356 357 359 358 354 351 349 345 340 337 344 359 12 13 357
321 322 323 325 328 331 333 333 333 335 336 337 337 338 339 340 343 346 348 351 354 354 354 354 353 354 355 356 355 354 354 352 350 350 350 349 348 350 352 354 356 353 349 346 343 342 335 332 340 350 360 5
316 317 315 317 321 323 325 326 327 328 330 332 332 335 336 337 341 342 342 344 347 348 350 352 352 354 354 355 353 351 352 352 349 347 348 347 345 345 345 347 351 351 348 345 341 337 333 326 328 336 339 346
321 321 318 319 321 318 317 319 320 321 325 327 325 329 330 331 337 339 341 340 340 344 348 351 352 354 354 353 354 352 350 349 348 346 346 346 344 342 341 342 344 346 345 344 341 333 329 324 321 328 329 330
337 338 335 332 328 319 312 312 314 315 318 323 322 321 321 322 329 336 339 338 339 344 349 350 352 354 354 353 353 353 350 348 347 346 345 345 343 341 341 340 339 341 341 341 341 334 329 324 314 314 318 320
341 342 340 339 338 335 325 312 310 311 312 317 318 315 313 314 323 330 333 334 338 345 349 351 351 351 352 351 351 352 350 348 347 345 344 344 342 340 339 338 338 338 336 336 339 337 333 327 314 305 304 310
341 339 338 338 338 344 347 330 317 311 307 311 314 311 308 309 319 325 323 328 337 343 346 349 350 349 349 347 345 347 347 347 348 346 346 344 342 341 339 338 338 337 335 333 332 335 337 333 322 309 297 298
342 342 340 337 333 335 342 342 335 322 307 304 307 309 306 307 318 317 314 329 340 344 346 346 346 347 347 344 340 340 342 344 346 346 346 346 344 341 340 339 338 338 336 333 329 328 330 331 326 316 301 291
339 339 339 336 334 331 331 334 341 345 334 314 308 310 308 309 313 313 322 340 344 346 349 346 342 344 345 343 341 339 340 340 341 343 343 343 343 341 338 336 335 335 334 331 329 326 322 321 322 320 311 294
336 335 336 335 334 332 330 328 336 351 358 353 339 334 332 323 321 327 338 347 347 348 355 352 347 349 347 344 345 343 341 339 338 340 339 338 340 340 337 333 331 330 330 328 326 324 320 316 315 315 313 303
334 335 334 332 332 332 330 328 331 341 349 357 3 4 360 350 347 349 348 349 348 350 360 358 351 350 345 340 342 343 341 339 338 338 338 336 337 338 336 332 329 327 328 327 323 321 318 314 312 309 308 305
331 332 330 326 326 326 327 327 327 329 333 341 347 353 357 354 354 355 350 348 344 344 348 343 339 338 336 333 335 337 337 337 336 337 338 336 335 336 335 332 329 327 325 324 322 318 315 313 310 306 304 302
329 331 330 326 321 320 322 324 324 323 324 328 331 337 343 341 341 345 347 348 345 343 340 334 334 333 333 334 334 333 334 336 336 336 336 336 334 334 333 330 329 328 327 324 320 317 314 311 309 305 301 298
336 340 339 336 330 324 321 321 322 321 319 321 322 327 334 332 333 337 342 347 346 344 340 337 336 335 336 337 336 336 337 336 336 336 336 335 333 331 331 332 332 332 330 325 320 318 315 310 306 303 299 294
341 345 344 341 339 334 328 323 320 317 317 319 320 325 331 330 331 333 336 340 341 341 338 336 333 332 334 334 334 335 335 334 332 332 333 333 331 331 333 334 335 335 334 332 328 325 320 313 307 303 298 294
334 338 337 334 332 331 329 324 320 318 319 321 321 326 327 325 327 329 331 332 333 333 332 331 329 328 328 327 327 326 325 326 326 326 328 330 330 331 331 331 333 336 339 338 331 326 321 316 315 311 307 305
326 329 328 325 325 327 326 323 321 322 323 319 316 320 321 322 324 326 328 328 328 329 328 327 326 326 325 323 322 321 321 321 322 324 323 324 327 327 326 324 327 333 337 335 330 328 315 314 324 320 321 330
324 326 323 322 324 325 326 325 323 321 320 320 321 322 323 323 323 324 325 325 327 328 327 326 323 322 322 322 321 319 319 319 320 322 321 319 320 320 321 321 322 324 327 330 332 329 303 318 331 303 326 336
333 332 328 330 331 330 330 328 324 322 324 326 326 325 325 325 324 324 324 325 326 325 325 325 324 324 323 323 324 321 319 317 317 316 316 317 314 312 313 314 314 314 317 321 319 308 292 313 324 275 327 333
345 337 333 336 336 332 329 324 320 322 324 323 323 322 322 323 325 325 326 326 324 323 323 325 327 329 329 328 328 328 325 321 317 313 312 312 306 304 306 307 307 308 310 311 308 304 293 287 284 287 312 323
341 328 330 333 331 327 320 312 311 315 316 317 317 318 319 321 324 327 327 326 325 326 329 332 332 331 329 328 326 326 326 325 324 321 319 314 308 306 305 303 301 302 306 306 302 304 303 297 293 286 286 282